Theta_e
302 301 301 301 301 301 301 302 302 302 302 303 303 304 304 305 306 302 297 295 292 293 294 295 298 294 295 297 290 294 296 299 298 292 290 292 292 295 295 295 292 289 286 282 285 283 283 303 301 293 295 297 297 295
301 301 301 301 300 300 300 301 302 302 302 303 303 304 305 306 306 305 295 295 300 295 293 300 300 302 302 302 299 298 297 298 298 295 295 296 294 295 294 288 297 290 291 288 288 288 295 298 296 297 298 295 294 292
301 301 301 300 300 300 300 301 301 302 302 303 304 304 306 306 306 305 299 295 294 293 295 296 298 302 309 308 308 297 298 300 298 301 298 296 291 296 290 290 294 297 298 291 291 294 294 295 296 296 295 293 293 293
301 301 300 300 300 300 300 300 301 302 302 303 304 305 306 306 306 305 298 296 298 296 291 294 303 300 308 310 308 306 303 303 302 300 297 293 294 297 293 294 294 295 296 292 291 293 293 292 293 293 293 293 293 293
301 300 300 300 300 300 300 300 300 301 302 303 305 305 305 306 306 304 301 299 301 297 288 291 299 303 305 307 305 305 303 300 297 295 294 292 295 295 294 295 291 295 294 290 288 294 292 290 292 294 293 292 292 291
300 300 299 299 299 299 299 300 300 301 302 304 305 305 306 306 306 297 296 302 298 297 295 289 296 298 301 303 303 301 299 297 296 294 292 293 295 294 290 288 295 297 298 298 294 295 294 293 294 294 293 292 292 291
300 299 299 299 299 299 299 300 300 302 302 304 305 306 306 306 300 291 291 297 301 296 295 291 290 297 301 299 299 298 299 296 294 291 292 292 293 295 292 289 294 297 298 296 295 293 290 291 290 293 294 293 293 291
299 299 299 299 299 299 299 300 301 302 303 305 305 306 307 306 304 295 299 303 300 297 298 290 290 292 299 295 292 294 294 294 293 292 292 291 293 294 290 293 296 296 296 295 294 293 292 293 293 292 293 291 289 288
299 299 299 299 299 299 299 300 301 302 304 304 305 307 300 299 292 294 306 306 298 298 291 293 288 286 298 295 294 292 291 289 291 289 290 292 290 287 294 295 296 296 294 291 292 293 292 291 291 291 291 290 288 287
298 299 298 298 299 299 299 300 301 302 304 305 298 293 289 294 305 303 297 292 293 297 297 290 294 289 295 293 291 289 288 286 285 288 292 288 288 294 297 299 298 296 293 293 290 289 290 290 290 290 290 290 289 288
298 298 298 298 299 299 299 300 301 302 301 293 288 288 293 301 295 292 289 288 287 285 290 291 291 289 296 290 289 291 286 287 281 285 287 284 285 293 297 296 298 296 294 294 294 293 292 292 291 291 291 291 289 288
298 298 297 298 299 299 299 300 301 299 296 295 296 300 294 291 288 285 284 289 286 286 290 288 290 292 293 295 291 291 287 288 283 289 285 282 290 294 294 293 293 294 293 292 293 293 293 293 292 291 291 289 288 288
297 297 297 298 298 299 299 300 301 302 301 299 296 291 288 285 276 282 282 285 284 289 292 292 290 290 291 292 290 291 287 284 289 283 282 286 292 294 292 292 292 293 293 293 293 294 294 292 292 291 290 290 289 287
297 297 298 298 299 299 300 300 302 299 298 293 288 274 281 281 283 286 288 285 288 292 291 290 288 288 288 288 289 288 290 288 283 281 283 289 292 294 292 293 292 291 292 293 293 293 292 292 291 291 291 290 289 287
296 297 298 297 298 299 300 301 301 298 295 290 288 280 282 289 291 290 293 291 291 293 291 289 289 288 286 286 287 287 286 283 283 281 285 291 294 292 292 292 292 291 292 292 292 292 291 291 290 289 289 289 289 289
296 296 295 298 300 300 300 299 297 295 293 291 290 283 284 283 283 285 287 287 291 292 293 290 286 285 285 286 285 285 284 280 282 287 290 295 297 294 293 293 293 293 292 291 292 292 292 291 289 289 289 289 289 289
295 292 298 299 298 299 300 295 297 294 291 289 285 286 283 285 285 290 290 288 291 293 290 287 285 285 288 285 284 285 282 285 288 290 292 294 297 296 294 293 293 292 291 291 291 291 290 290 289 289 287 288 288 289
291 295 297 298 297 296 299 296 294 291 288 288 282 284 287 291 292 292 294 293 292 294 293 288 293 287 286 286 285 288 291 291 291 291 292 297 297 295 294 293 293 292 291 291 291 290 290 289 288 288 287 288 287 287
294 294 296 297 295 293 292 294 295 287 287 288 287 289 295 295 296 296 295 296 294 299 296 293 291 287 287 290 290 291 291 291 291 292 297 297 298 296 294 294 294 293 292 291 291 290 290 290 289 287 287 287 286 286
296 297 297 297 297 293 291 291 296 290 287 289 288 290 294 294 297 296 295 294 294 295 294 293 292 293 292 295 295 295 293 294 294 291 293 295 295 294 293 293 293 293 292 290 289 289 288 287 287 287 287 287 286 285
295 296 300 296 294 293 292 292 290 292 290 286 290 291 292 296 296 294 290 297 295 293 291 293 294 298 295 296 298 296 296 295 293 294 292 290 291 294 293 291 291 291 290 289 289 288 289 290 288 287 287 287 287 286
293 299 296 297 292 293 291 290 290 293 288 288 289 290 292 291 293 293 295 293 292 293 293 296 297 298 296 297 297 298 297 296 296 295 293 293 291 291 290 290 291 290 290 290 290 289 289 289 289 289 288 287 288 289
295 295 293 294 291 289 286 290 288 288 284 288 290 288 289 293 295 299 293 294 295 298 299 300 301 301 297 298 298 297 299 298 294 292 293 292 292 292 291 291 292 291 289 290 291 292 291 288 289 291 291 291 290 289
297 291 289 288 289 283 288 286 287 287 288 287 286 285 288 292 296 293 290 294 296 297 297 296 296 297 297 296 295 295 298 295 292 291 292 292 291 291 292 292 292 293 294 293 294 293 292 292 290 291 292 292 291 290
286 284 286 281 288 287 286 286 286 286 285 286 286 286 288 290 287 288 288 293 293 291 290 291 293 293 293 293 295 295 297 294 290 290 291 292 291 291 290 291 291 292 294 294 293 292 292 292 293 292 293 292 291 291
280 284 284 286 285 284 284 283 285 285 286 285 286 289 288 286 286 286 290 291 292 292 289 289 289 290 290 291 295 295 295 296 291 290 290 293 294 293 290 290 290 292 294 294 294 292 292 293 293 294 292 291 288 290
280 281 285 289 288 289 289 291 290 287 285 284 284 285 283 282 285 287 291 293 291 293 291 291 294 290 289 289 292 295 296 292 292 292 292 292 292 295 296 293 291 291 294 296 295 295 294 293 292 291 289 289 289 288
285 284 284 289 289 290 287 287 286 287 287 289 286 283 282 282 281 289 292 293 290 289 289 289 292 294 290 290 291 295 297 292 292 292 292 291 290 291 291 291 290 287 292 294 295 295 295 293 290 288 288 287 285 286
284 287 289 287 288 289 289 289 286 289 291 289 287 285 284 288 289 291 293 293 290 289 289 292 294 295 291 291 292 296 299 296 293 289 288 286 286 287 289 289 289 289 289 288 285 289 291 288 287 286 286 285 285 284
285 288 286 288 288 288 292 294 288 289 288 287 288 289 287 290 293 294 293 288 289 290 293 294 295 292 288 290 293 294 295 297 297 293 289 289 289 290 289 288 288 287 288 287 287 286 285 286 284 284 283 282 282 282
291 289 287 288 290 292 290 290 290 289 288 286 285 285 287 290 292 292 288 288 290 291 292 293 294 294 293 295 296 297 293 293 294 295 295 293 292 290 289 288 287 287 286 286 286 286 285 283 282 281 280 280 280 280
289 288 287 286 289 291 290 290 288 286 286 285 288 290 287 288 287 289 290 290 292 293 292 293 294 294 296 299 299 298 292 297 296 295 294 293 292 291 289 288 288 288 287 287 286 285 284 282 281 281 280 280 280 280
288 288 288 288 286 286 289 287 286 284 286 287 288 289 288 285 285 288 291 291 292 291 291 292 295 296 294 295 296 293 290 291 291 288 289 289 289 289 290 290 289 288 287 285 284 284 282 281 280 279 279 279 279 279
Wind_Speed
13 13 14 15 14 15 16 17 18 19 20 20 19 19 19 17 18 8 6 3 2 3 10 5 5 12 8 3 3 6 4 1 1 2 1 2 2 3 2 1 4 5 6 2 4 4 2 2 2 3 8 8 12 11
13 12 13 14 15 15 15 17 18 19 20 20 19 18 17 18 16 12 3 2 2 4 8 6 15 13 10 9 4 3 2 3 3 2 2 1 2 3 5 4 2 3 4 7 3 2 4 1 10 11 13 17 9 15
14 13 12 13 14 16 15 17 18 19 20 20 19 18 18 17 15 10 5 3 2 3 6 3 4 5 2 3 4 3 2 4 4 1 3 3 3 3 4 4 4 4 2 7 5 6 11 14 15 15 14 14 11 11
13 13 13 13 14 15 16 16 18 20 21 21 20 19 17 16 14 12 4 2 2 3 4 7 3 7 3 6 10 8 9 3 5 2 3 1 2 1 1 4 5 1 5 8 11 8 16 10 12 16 16 15 16 13
13 13 13 13 15 16 15 16 17 20 21 22 21 20 18 17 14 8 4 4 3 2 3 7 11 4 1 7 13 13 11 6 3 3 1 3 2 5 2 3 3 2 11 7 7 13 11 6 7 14 17 15 14 18
14 13 14 13 15 15 16 16 17 20 22 23 23 22 19 15 11 2 2 3 1 1 3 4 4 6 5 6 11 13 7 2 2 1 2 2 2 4 4 3 6 2 3 10 9 7 15 11 10 11 17 13 13 13
13 13 13 13 14 16 17 16 19 20 22 23 22 22 17 12 1 3 5 3 2 1 2 4 5 5 6 3 2 4 5 4 3 2 4 1 5 5 4 3 6 9 14 19 21 21 13 4 9 13 17 15 16 14
13 13 12 13 13 15 17 16 20 22 22 24 23 20 14 7 5 5 3 6 3 2 1 3 5 6 5 3 4 2 4 4 6 3 3 4 4 3 5 4 10 15 18 14 10 11 15 15 15 14 14 13 13 11
11 11 12 14 14 15 17 16 18 22 22 24 24 6 4 2 1 4 7 1 1 1 2 2 2 4 5 3 2 5 3 4 4 4 4 4 4 4 9 13 13 15 8 15 14 16 15 16 14 11 12 10 13 8
9 11 11 13 15 15 17 16 17 21 23 19 3 3 2 3 10 4 3 2 1 1 2 3 1 4 2 2 2 2 3 2 3 3 2 5 1 2 3 10 11 14 18 18 17 9 13 12 12 9 8 8 10 9
9 10 11 13 15 16 16 16 16 19 9 4 4 2 4 9 3 2 1 1 2 2 3 4 4 2 2 2 2 1 1 1 3 5 4 3 2 2 5 8 9 13 14 7 11 11 10 15 13 11 10 10 10 9
11 9 11 14 15 16 15 15 13 5 1 3 4 4 3 2 2 1 3 3 1 2 3 1 2 3 3 1 2 3 2 3 1 1 4 1 2 3 8 10 9 9 11 11 13 14 13 13 11 11 11 10 9 10
11 11 12 15 14 15 15 14 12 11 8 2 2 2 1 2 4 3 3 2 2 4 3 4 3 1 4 4 1 2 2 3 1 4 2 4 2 5 7 12 11 11 15 15 13 13 14 12 11 12 11 9 10 9
11 12 14 15 16 14 16 14 11 5 2 2 2 4 4 3 4 3 3 3 4 2 4 2 2 1 2 3 0 1 0 2 2 1 5 3 5 10 7 10 15 12 15 14 14 13 13 12 10 10 11 10 10 9
8 13 15 16 19 18 14 12 11 2 2 3 2 4 5 3 1 1 1 0 2 2 2 3 2 2 2 1 1 1 1 3 5 5 4 4 9 11 12 11 13 13 12 12 12 12 11 11 10 8 8 8 9 8
7 13 6 6 5 8 12 8 1 3 2 3 4 2 2 3 2 2 1 2 2 3 1 2 1 1 3 3 2 5 4 5 5 4 3 8 11 13 13 12 12 12 12 11 10 10 10 10 10 9 7 8 8 8
5 3 5 7 9 13 8 2 2 4 4 3 4 2 4 3 5 3 3 4 2 1 3 2 2 5 1 2 3 4 5 4 4 2 3 7 11 12 10 11 11 10 10 9 9 8 8 7 8 8 7 6 7 7
3 3 9 11 10 5 1 2 2 3 5 3 2 4 3 3 1 3 3 2 2 2 2 3 1 1 3 3 3 3 2 0 2 3 4 6 8 10 11 11 11 11 10 10 10 7 8 9 9 7 7 7 6 6
5 7 13 10 4 2 2 3 3 3 5 3 3 3 3 3 5 6 3 3 3 1 1 1 4 3 4 3 2 1 2 2 4 2 3 6 9 11 11 11 11 10 11 9 9 8 8 10 8 5 5 5 5 4
12 16 17 12 3 3 3 3 2 3 3 3 2 3 2 3 4 2 4 3 3 1 4 3 2 2 2 3 2 3 3 3 5 4 4 3 5 11 11 11 9 10 8 6 5 6 4 3 2 4 5 6 5 5
5 4 1 6 3 3 3 3 3 3 2 2 2 2 2 3 1 3 3 3 3 3 3 3 4 3 3 3 1 3 4 4 4 4 4 4 2 7 5 4 7 6 5 5 6 4 5 7 5 5 6 5 4 5
3 6 2 2 3 5 4 4 3 2 2 3 3 2 2 2 2 2 4 3 3 2 3 3 2 1 2 1 1 3 5 6 6 5 7 9 4 4 4 5 6 5 5 6 6 6 5 4 5 6 6 5 5 5
7 1 1 3 2 2 6 2 3 3 2 3 1 0 3 2 2 1 1 1 1 2 2 2 2 2 1 2 4 5 4 7 5 5 5 4 4 4 5 5 5 6 5 4 3 5 5 6 6 6 4 5 4 3
2 2 2 2 4 4 2 3 3 2 1 1 1 3 2 3 4 2 1 2 2 3 3 3 0 3 3 4 3 2 3 3 4 3 3 6 4 3 4 5 4 5 6 5 5 4 5 7 7 6 6 7 6 5
4 4 3 4 3 3 3 3 3 1 2 2 2 3 2 1 2 2 3 4 2 2 4 4 4 4 3 2 3 2 3 3 4 5 3 3 4 4 4 2 2 2 4 6 5 5 5 5 6 6 7 7 8 7
4 5 5 4 3 4 4 2 4 4 2 3 3 1 2 2 2 1 2 1 3 1 2 3 3 3 5 4 2 3 3 3 4 4 3 5 6 7 6 6 4 1 1 2 6 6 6 5 7 9 7 7 7 8
2 3 4 4 3 2 3 3 2 1 1 1 2 1 2 2 2 1 2 1 2 1 1 2 3 2 0 3 3 3 3 1 3 4 3 4 2 5 9 8 6 4 3 6 5 8 9 7 6 6 6 5 6 8
3 2 3 2 0 1 2 2 4 4 3 3 3 2 4 4 5 2 2 2 3 2 1 1 3 1 1 3 3 4 4 3 4 7 8 8 6 5 6 5 5 7 5 4 5 6 7 8 8 8 8 8 6 5
3 3 1 4 5 5 5 3 2 3 1 3 4 3 2 1 2 2 2 2 2 1 1 1 1 1 2 3 4 3 2 1 5 7 7 6 4 3 3 4 5 5 5 7 9 7 11 9 9 9 8 6 5 5
4 4 4 4 3 1 0 1 2 0 2 2 2 3 3 2 2 1 2 2 0 2 2 2 2 0 2 2 2 1 1 2 3 5 7 5 3 5 3 4 6 4 5 8 10 10 13 13 11 7 8 6 6 7
1 3 2 1 1 0 2 2 2 3 3 3 3 3 2 2 1 1 1 0 2 2 2 3 3 3 3 3 2 4 2 0 6 8 9 9 6 5 5 5 5 4 6 7 8 9 9 9 9 9 9 8 8 7
2 3 1 2 2 1 1 2 2 2 2 2 1 2 1 1 2 1 1 1 2 3 2 3 3 3 4 3 2 2 3 5 6 9 13 8 5 4 6 7 6 6 7 8 8 9 11 11 8 9 9 9 8 8
1 1 1 2 2 2 1 3 2 1 0 1 2 3 3 3 1 0 1 1 1 2 2 3 2 4 4 3 5 3 4 4 6 7 10 9 8 7 6 5 5 6 8 7 7 9 11 14 10 10 10 9 8 8
Wind_Direction
264 275 286 295 307 312 315 320 322 325 325 325 330 332 333 332 332 350 278 209 142 266 286 245 257 301 297 249 297 287 297 313 289 88 115 164 152 156 92 236 192 140 114 113 76 100 169 102 54 181 150 83 119 104
255 267 279 291 302 305 312 315 318 321 325 325 328 329 330 324 329 338 286 255 248 234 259 288 277 255 243 240 287 284 297 292 308 342 195 253 169 133 146 185 301 99 169 136 99 212 315 327 116 93 105 112 111 111
251 261 273 287 296 301 309 312 317 318 323 323 324 326 323 321 323 324 290 296 289 268 286 300 250 251 187 187 199 293 315 346 317 304 286 257 116 136 145 222 136 85 116 94 86 359 70 84 86 92 108 107 106 104
246 262 272 285 293 299 305 310 315 315 318 320 321 321 320 318 318 319 284 244 251 266 282 283 314 307 237 188 223 214 262 262 256 253 235 241 101 88 102 141 99 48 62 113 88 100 82 47 91 107 101 103 98 87
252 259 269 281 290 298 303 308 314 313 316 317 320 322 321 321 316 305 239 232 246 255 271 288 310 257 179 264 260 254 233 245 233 276 287 118 45 43 31 85 46 343 150 133 178 171 121 144 137 126 117 117 115 113
248 259 271 281 288 296 299 305 309 311 314 315 317 316 314 318 326 309 276 203 269 197 284 298 286 288 293 190 269 311 310 220 187 158 319 55 132 135 74 63 329 38 107 140 130 108 114 116 114 124 111 111 107 103
245 255 265 277 288 296 301 309 310 311 313 312 313 308 307 307 194 206 207 219 276 136 260 291 310 293 298 338 299 332 325 337 10 6 32 34 21 48 60 57 351 74 96 104 116 114 96 106 123 108 104 105 102 96
246 261 273 283 293 297 300 309 312 314 315 311 310 303 304 300 251 278 266 241 163 291 254 296 289 319 351 330 329 25 339 3 7 336 1 30 358 37 72 63 100 107 105 98 87 85 109 116 108 106 109 113 99 98
242 265 281 290 296 298 297 310 317 315 314 312 308 314 57 123 229 243 226 171 250 218 294 253 278 287 347 336 313 344 32 29 306 35 10 49 337 42 145 139 137 137 116 120 102 111 118 117 119 118 114 112 110 113
248 265 276 287 292 300 302 311 318 318 314 310 16 34 331 237 311 347 18 37 257 206 228 254 247 275 7 14 314 353 4 49 37 291 349 59 340 317 117 144 135 122 126 124 111 117 120 119 124 127 121 123 122 121
244 263 282 293 295 294 298 312 323 327 342 23 22 296 267 316 26 22 277 192 206 253 206 234 194 260 312 353 301 56 219 3 54 286 89 358 357 346 101 97 122 138 143 126 125 127 129 134 130 124 116 117 114 115
254 273 277 282 290 295 298 307 318 332 293 261 288 280 308 339 29 18 266 308 251 264 301 226 252 201 301 32 33 340 36 32 8 300 69 32 243 78 118 113 108 115 112 105 116 115 114 116 122 118 119 120 114 117
256 267 277 280 288 291 293 298 307 308 302 262 196 240 90 276 40 196 192 213 297 318 359 341 327 70 352 38 349 20 51 241 37 42 206 218 144 106 121 112 101 109 110 107 107 109 111 112 114 118 117 121 125 121
271 291 291 287 289 289 289 292 304 325 280 228 180 315 184 233 239 180 182 203 248 262 310 297 286 55 344 3 26 28 295 93 67 244 227 203 161 141 133 126 119 121 117 117 118 120 121 121 120 119 127 135 130 124
287 288 291 288 286 277 274 286 307 248 240 243 151 237 224 249 234 339 338 203 288 299 316 344 334 86 318 346 261 18 152 232 206 224 225 167 138 141 136 132 127 125 127 126 129 129 131 132 129 123 123 122 124 132
307 303 260 267 287 300 292 304 233 186 239 229 222 258 293 48 309 350 292 263 254 315 360 50 16 9 253 194 176 221 161 219 242 216 211 132 136 149 145 146 144 140 139 136 136 136 135 137 142 143 135 137 139 142
298 231 350 9 336 308 292 181 215 215 238 219 253 245 169 210 209 230 194 228 249 311 199 136 208 226 283 246 239 178 200 225 233 196 137 133 141 150 141 136 137 139 133 131 132 134 134 126 126 136 148 168 157 161
224 267 336 347 358 317 232 210 245 247 250 230 193 248 207 198 204 237 246 198 163 234 168 209 359 264 230 235 259 238 226 6 73 119 124 121 117 127 134 136 142 144 138 140 143 135 135 144 156 179 166 158 146 148
245 272 292 307 348 308 268 223 197 254 245 231 227 222 195 225 224 222 205 194 197 343 295 205 230 224 242 226 213 227 187 160 130 100 78 102 123 125 132 137 142 139 143 146 149 159 169 176 179 162 157 150 165 164
273 267 265 263 223 246 238 251 174 235 257 235 206 195 191 214 207 196 188 171 143 183 220 228 243 239 221 283 217 165 161 134 112 90 77 54 95 117 133 141 144 151 151 127 125 122 118 101 121 154 158 159 152 179
295 240 155 129 183 234 287 272 240 229 247 249 257 169 220 209 193 169 174 159 175 216 212 215 244 284 297 259 242 125 133 127 122 126 147 124 117 136 129 117 129 132 134 148 159 174 163 184 175 166 160 163 173 167
260 299 172 177 222 201 238 234 237 293 219 248 294 192 109 261 242 200 138 178 219 216 181 179 230 311 345 7 119 146 136 109 103 95 76 109 107 107 123 140 129 149 155 169 165 178 192 164 156 161 162 167 160 153
296 192 248 232 262 248 252 146 223 196 209 252 347 220 227 187 194 208 165 169 139 6 67 326 336 16 63 25 88 77 124 127 119 125 142 144 137 125 125 156 157 156 168 202 175 177 171 155 151 156 155 148 150 147
214 259 239 225 216 258 265 226 232 249 253 278 222 269 241 144 151 126 334 61 29 6 40 335 27 80 39 46 63 76 75 105 122 108 127 123 127 176 168 170 174 188 190 161 157 172 160 176 166 170 165 164 159 155
222 235 207 245 271 252 230 233 217 197 236 215 220 281 295 85 141 115 124 133 72 27 349 347 51 55 90 36 38 41 49 130 149 156 182 152 115 91 77 100 139 172 153 147 167 151 160 145 156 162 167 166 166 146
222 203 201 209 219 203 229 227 197 205 208 196 236 305 22 65 65 88 95 106 86 24 2 36 42 47 46 28 18 341 327 16 136 141 203 169 162 148 154 146 139 207 180 166 139 142 149 151 156 158 162 170 162 141
257 263 236 231 230 284 313 18 39 99 135 169 239 89 71 135 176 155 123 72 116 168 113 3 23 77 37 324 314 320 330 348 170 157 123 105 88 154 150 152 165 204 167 161 149 150 151 147 144 145 135 116 141 147
247 272 244 336 256 169 249 256 205 205 211 200 107 158 172 193 210 192 131 150 131 89 48 277 259 258 221 274 282 320 7 19 88 99 84 55 38 33 69 81 79 88 88 94 121 119 134 141 138 132 135 132 127 112
238 242 215 260 226 223 211 184 214 249 281 137 140 146 157 121 169 103 81 68 43 104 293 312 302 168 329 295 270 256 217 259 138 119 122 129 106 21 8 86 91 82 86 81 51 83 116 116 113 109 103 109 104 101
245 169 203 245 246 116 68 322 158 277 42 83 67 65 49 72 111 93 129 106 260 256 268 264 283 264 260 287 287 221 221 206 267 152 143 141 143 128 115 112 99 92 95 99 101 97 93 97 94 83 87 85 95 104
245 169 225 221 27 112 155 139 64 62 54 53 29 86 133 130 92 54 46 216 243 266 279 267 251 221 228 255 240 160 142 244 132 119 113 114 137 133 136 127 111 101 100 105 108 111 109 102 106 106 102 102 104 109
175 197 177 135 185 225 84 59 79 70 51 75 115 107 71 93 206 229 216 290 237 230 240 268 253 223 202 194 111 65 151 143 140 131 125 135 131 157 143 117 117 115 111 112 113 121 123 122 123 122 117 111 111 113
116 162 187 107 87 166 196 101 93 85 119 212 195 178 176 161 227 237 284 236 276 309 313 311 342 85 76 104 112 73 57 95 114 120 121 124 136 129 111 118 111 110 116 116 121 126 126 124 119 118 113 111 108 109